Location: Moscow
(55.7500°N, 37.5830°E)
Time: 20:17:58
(UTC+03:00)

A-11 Canister half - Pass Details

Date: 06 December 2021
Orbit: 1516 x 1684 km, 47.2° (Epoch: 20 January)

Event Time Altitude Azimuth Distance (km) Brightness Sun altitude
Rises 07:31:30 0° 225° (SW) 4,760 11.4 -9.1°
Reaches altitude 10° 07:34:46 10° 219° (SW) 3,801 11.0 -8.7°
Maximum altitude 07:43:32 40° 154° (SSE) 2,245 10.4 -7.6°
Drops below altitude 10° 07:52:33 10° 90° (E) 3,921 12.2 -6.5°
Sets 07:55:59 0° 83° (E) 4,925 12.6 -6.1°
